Time,TemperatureF,DewpointF,PressureIn,WindDirection,WindDirectionDegrees,WindSpeedMPH,WindSpeedGustMPH,Humidity,HourlyPrecipIn,Conditions,Clouds,dailyrainin,SoftwareType,DateUTC
2013-03-28 00:00:00,34.0,25.9,30.35,North,-999,-999.0,-999.0,72,0.00,,,0.00,meteohub,2013-03-28 05:00:00,
2013-03-28 00:05:00,33.8,25.3,30.35,WNW,285,0.0,-999.0,71,0.00,,,0.00,meteohub,2013-03-28 05:05:00,
2013-03-28 00:10:00,33.6,25.5,30.35,WSW,256,0.0,6.0,72,0.00,,,0.00,meteohub,2013-03-28 05:10:00,
2013-03-28 00:15:00,33.4,25.3,30.35,SW,233,0.0,6.0,72,0.00,,,0.00,meteohub,2013-03-28 05:15:00,
2013-03-28 00:21:00,33.4,25.3,30.34,WSW,252,0.0,5.0,72,0.00,,,0.00,meteohub,2013-03-28 05:21:00,
2013-03-28 00:26:00,33.3,25.2,30.35,SW,235,0.0,5.0,72,0.00,,,0.00,meteohub,2013-03-28 05:26:00,
2013-03-28 00:32:00,33.3,25.2,30.35,West,279,1.0,5.0,72,0.00,,,0.00,meteohub,2013-03-28 05:32:00,
2013-03-28 00:37:00,33.1,25.0,30.35,West,269,0.0,5.0,72,0.00,,,0.00,meteohub,2013-03-28 05:37:00,
2013-03-28 00:42:00,33.1,25.3,30.35,WNW,297,2.0,3.0,73,0.00,,,0.00,meteohub,2013-03-28 05:42:00,
2013-03-28 00:47:00,32.7,25.0,30.35,WNW,297,0.0,3.0,73,0.00,,,0.00,meteohub,2013-03-28 05:47:00,
2013-03-28 00:53:00,32.5,24.8,30.35,NW,305,0.0,2.0,73,0.00,,,0.00,meteohub,2013-03-28 05:53:00,
2013-03-28 00:58:00,32.5,25.2,30.35,NW,304,0.0,3.0,74,0.00,,,0.00,meteohub,2013-03-28 05:58:00,
2013-03-28 01:03:00,32.4,25.0,30.35,WNW,294,0.0,4.0,74,0.00,,,0.00,meteohub,2013-03-28 06:03:00,
2013-03-28 01:08:00,32.4,25.0,30.35,West,277,0.0,4.0,74,0.00,,,0.00,meteohub,2013-03-28 06:08:00,
2013-03-28 01:13:00,32.4,25.0,30.35,WNW,302,0.0,4.0,74,0.00,,,0.00,meteohub,2013-03-28 06:13:00,
2013-03-28 01:18:00,32.2,24.8,30.35,WNW,290,0.0,4.0,74,0.00,,,0.00,meteohub,2013-03-28 06:18:00,
2013-03-28 01:23:00,32.0,25.0,30.35,WNW,290,0.0,4.0,75,0.00,,,0.00,meteohub,2013-03-28 06:23:00,
2013-03-28 01:29:00,31.8,24.8,30.35,WNW,297,0.0,3.0,75,0.00,,,0.00,meteohub,2013-03-28 06:29:00,
2013-03-28 01:34:00,31.6,24.6,30.35,NW,309,2.0,2.0,75,0.00,,,0.00,meteohub,2013-03-28 06:34:00,
2013-03-28 01:39:00,31.6,24.6,30.35,WNW,292,0.0,4.0,75,0.00,,,0.00,meteohub,2013-03-28 06:39:00,
2013-03-28 01:45:00,31.6,25.0,30.35,WNW,286,0.0,4.0,76,0.00,,,0.00,meteohub,2013-03-28 06:45:00,
2013-03-28 01:50:00,31.6,25.0,30.35,West,277,0.0,4.0,76,0.00,,,0.00,meteohub,2013-03-28 06:50:00,
2013-03-28 01:55:00,31.6,25.0,30.35,WSW,257,0.0,4.0,76,0.00,,,0.00,meteohub,2013-03-28 06:55:00,
2013-03-28 02:00:00,31.6,25.0,30.35,WNW,291,0.0,3.0,76,0.00,,,0.00,meteohub,2013-03-28 07:00:00,
2013-03-28 02:06:00,31.5,24.8,30.35,WNW,288,0.0,2.0,76,0.00,,,0.00,meteohub,2013-03-28 07:06:00,
2013-03-28 02:12:00,31.5,24.8,30.35,WNW,288,0.0,2.0,76,0.00,,,0.00,meteohub,2013-03-28 07:12:00,
2013-03-28 02:17:00,31.3,24.6,30.35,WNW,288,0.0,1.0,76,0.00,,,0.00,meteohub,2013-03-28 07:17:00,
2013-03-28 02:22:00,30.9,24.6,30.35,WNW,288,0.0,1.0,77,0.00,,,0.00,meteohub,2013-03-28 07:22:00,
2013-03-28 02:27:00,30.7,24.6,30.35,WNW,288,0.0,1.0,78,0.00,,,0.00,meteohub,2013-03-28 07:27:00,
2013-03-28 02:32:00,30.6,24.4,30.35,West,275,0.0,1.0,78,0.00,,,0.00,meteohub,2013-03-28 07:32:00,
2013-03-28 02:37:00,30.4,24.3,30.35,West,275,0.0,2.0,78,0.00,,,0.00,meteohub,2013-03-28 07:37:00,
2013-03-28 02:42:00,30.6,24.8,30.35,West,273,0.0,2.0,79,0.00,,,0.00,meteohub,2013-03-28 07:42:00,
2013-03-28 02:47:00,30.6,24.8,30.35,NW,309,1.0,2.0,79,0.00,,,0.00,meteohub,2013-03-28 07:47:00,
2013-03-28 02:52:00,30.7,24.6,30.35,WSW,246,0.0,3.0,78,0.00,,,0.00,meteohub,2013-03-28 07:52:00,
2013-03-28 02:57:00,30.6,24.4,30.35,WSW,250,0.0,3.0,78,0.00,,,0.00,meteohub,2013-03-28 07:57:00,
2013-03-28 03:03:00,30.6,24.4,30.35,West,265,2.0,3.0,78,0.00,,,0.00,meteohub,2013-03-28 08:03:00,
2013-03-28 03:08:00,30.4,24.6,30.35,West,261,0.0,2.0,79,0.00,,,0.00,meteohub,2013-03-28 08:08:00,
2013-03-28 03:13:00,30.2,24.4,30.35,West,267,0.0,2.0,79,0.00,,,0.00,meteohub,2013-03-28 08:13:00,
2013-03-28 03:18:00,30.2,24.4,30.35,WNW,286,0.0,2.0,79,0.00,,,0.00,meteohub,2013-03-28 08:18:00,
2013-03-28 03:23:00,30.2,24.4,30.35,West,267,0.0,3.0,79,0.00,,,0.00,meteohub,2013-03-28 08:23:00,
2013-03-28 03:29:00,30.2,24.4,30.35,WNW,294,0.0,4.0,79,0.00,,,0.00,meteohub,2013-03-28 08:29:00,
2013-03-28 03:34:00,30.0,24.3,30.35,SW,232,0.0,4.0,79,0.00,,,0.00,meteohub,2013-03-28 08:34:00,
2013-03-28 03:39:00,30.2,24.4,30.35,WSW,239,0.0,4.0,79,0.00,,,0.00,meteohub,2013-03-28 08:39:00,
2013-03-28 03:44:00,30.2,24.4,30.35,WSW,240,0.0,6.0,79,0.00,,,0.00,meteohub,2013-03-28 08:44:00,
2013-03-28 03:49:00,30.4,24.6,30.35,WSW,251,0.0,6.0,79,0.00,,,0.00,meteohub,2013-03-28 08:49:00,
2013-03-28 03:55:00,30.2,24.4,30.35,WSW,244,0.0,6.0,79,0.00,,,0.00,meteohub,2013-03-28 08:55:00,
2013-03-28 04:00:00,30.0,24.1,30.35,WSW,244,0.0,2.0,78,0.00,,,0.00,meteohub,2013-03-28 09:00:00,
2013-03-28 04:07:00,30.0,24.3,30.35,WSW,245,0.0,2.0,79,0.00,,,0.00,meteohub,2013-03-28 09:07:00,
2013-03-28 04:12:00,29.8,24.1,30.35,WSW,245,0.0,2.0,79,0.00,,,0.00,meteohub,2013-03-28 09:12:00,
2013-03-28 04:17:00,29.7,23.9,30.34,WSW,245,0.0,2.0,79,0.00,,,0.00,meteohub,2013-03-28 09:17:00,
2013-03-28 04:22:00,29.5,24.1,30.35,WSW,245,0.0,1.0,80,0.00,,,0.00,meteohub,2013-03-28 09:22:00,
2013-03-28 04:27:00,29.3,23.9,30.35,WSW,245,0.0,1.0,80,0.00,,,0.00,meteohub,2013-03-28 09:27:00,
2013-03-28 04:32:00,29.1,24.1,30.34,WSW,245,0.0,0.0,81,0.00,,,0.00,meteohub,2013-03-28 09:32:00,
2013-03-28 04:37:00,29.1,23.7,30.35,WSW,245,0.0,0.0,80,0.00,,,0.00,meteohub,2013-03-28 09:37:00,
2013-03-28 04:42:00,28.8,23.7,30.35,WSW,245,0.0,0.0,81,0.00,,,0.00,meteohub,2013-03-28 09:42:00,
2013-03-28 04:47:00,28.8,23.7,30.35,WSW,246,0.0,1.0,81,0.00,,,0.00,meteohub,2013-03-28 09:47:00,
2013-03-28 04:53:00,28.6,23.7,30.35,WSW,246,0.0,1.0,82,0.00,,,0.00,meteohub,2013-03-28 09:53:00,
2013-03-28 04:58:00,28.8,23.9,30.35,WSW,246,0.0,1.0,82,0.00,,,0.00,meteohub,2013-03-28 09:58:00,
2013-03-28 05:03:00,29.1,24.3,30.35,WSW,246,0.0,2.0,82,0.00,,,0.00,meteohub,2013-03-28 10:03:00,
2013-03-28 05:09:00,29.1,24.1,30.35,WSW,246,0.0,2.0,81,0.00,,,0.00,meteohub,2013-03-28 10:09:00,
2013-03-28 05:14:00,28.9,23.5,30.35,WSW,246,0.0,1.0,80,0.00,,,0.00,meteohub,2013-03-28 10:14:00,
2013-03-28 05:19:00,28.8,23.7,30.35,WSW,246,0.0,0.0,81,0.00,,,0.00,meteohub,2013-03-28 10:19:00,
2013-03-28 05:24:00,28.6,23.5,30.35,WSW,246,0.0,0.0,81,0.00,,,0.00,meteohub,2013-03-28 10:24:00,
2013-03-28 05:29:00,28.6,23.7,30.35,WSW,246,0.0,0.0,82,0.00,,,0.00,meteohub,2013-03-28 10:29:00,
2013-03-28 05:34:00,28.6,23.7,30.35,WSW,246,0.0,0.0,82,0.00,,,0.00,meteohub,2013-03-28 10:34:00,
2013-03-28 05:39:00,28.6,24.1,30.35,WSW,246,0.0,1.0,83,0.00,,,0.00,meteohub,2013-03-28 10:39:00,
2013-03-28 05:45:00,28.2,23.4,30.35,WSW,246,0.0,1.0,82,0.00,,,0.00,meteohub,2013-03-28 10:45:00,
2013-03-28 05:50:00,28.0,23.5,30.35,WSW,246,0.0,1.0,83,0.00,,,0.00,meteohub,2013-03-28 10:50:00,
2013-03-28 05:55:00,27.9,23.4,30.35,WSW,246,0.0,0.0,83,0.00,,,0.00,meteohub,2013-03-28 10:55:00,
2013-03-28 06:00:00,27.5,23.4,30.35,WSW,246,0.0,0.0,84,0.00,,,0.00,meteohub,2013-03-28 11:00:00,
2013-03-28 06:06:00,27.1,23.0,30.36,WSW,246,0.0,0.0,84,0.00,,,0.00,meteohub,2013-03-28 11:06:00,
2013-03-28 06:12:00,27.1,23.5,30.36,WSW,246,0.0,0.0,86,0.00,,,0.00,meteohub,2013-03-28 11:12:00,
2013-03-28 06:17:00,27.3,23.7,30.36,WSW,246,0.0,0.0,86,0.00,,,0.00,meteohub,2013-03-28 11:17:00,
2013-03-28 06:22:00,27.0,23.4,30.36,WSW,246,0.0,0.0,86,0.00,,,0.00,meteohub,2013-03-28 11:22:00,
2013-03-28 06:27:00,26.8,23.2,30.36,North,-999,-999.0,0.0,86,0.00,,,0.00,meteohub,2013-03-28 11:27:00,
2013-03-28 06:32:00,26.4,22.8,30.36,WSW,246,0.0,0.0,86,0.00,,,0.00,meteohub,2013-03-28 11:32:00,
2013-03-28 06:37:00,26.2,22.8,30.36,WSW,246,0.0,0.0,87,0.00,,,0.00,meteohub,2013-03-28 11:37:00,
2013-03-28 06:42:00,26.4,23.4,30.37,WSW,246,0.0,0.0,88,0.00,,,0.00,meteohub,2013-03-28 11:42:00,
2013-03-28 06:48:00,26.4,23.4,30.37,WSW,246,0.0,0.0,88,0.00,,,0.00,meteohub,2013-03-28 11:48:00,
2013-03-28 06:53:00,26.2,22.8,30.37,WSW,246,0.0,0.0,87,0.00,,,0.00,meteohub,2013-03-28 11:53:00,
2013-03-28 06:58:00,26.1,22.6,30.37,WSW,246,0.0,0.0,87,0.00,,,0.00,meteohub,2013-03-28 11:58:00,
2013-03-28 07:03:00,26.2,23.4,30.37,WSW,246,0.0,0.0,89,0.00,,,0.00,meteohub,2013-03-28 12:03:00,
2013-03-28 07:08:00,26.8,23.7,30.37,WSW,246,0.0,0.0,88,0.00,,,0.00,meteohub,2013-03-28 12:08:00,
2013-03-28 07:14:00,27.0,23.9,30.37,WSW,246,0.0,0.0,88,0.00,,,0.00,meteohub,2013-03-28 12:14:00,
2013-03-28 07:19:00,27.1,23.7,30.37,WSW,246,0.0,0.0,87,0.00,,,0.00,meteohub,2013-03-28 12:19:00,
2013-03-28 07:24:00,27.9,24.3,30.37,WSW,246,0.0,0.0,86,0.00,,,0.00,meteohub,2013-03-28 12:24:00,
2013-03-28 07:29:00,28.2,24.3,30.38,WSW,246,0.0,0.0,85,0.00,,,0.00,meteohub,2013-03-28 12:29:00,
2013-03-28 07:34:00,28.8,24.6,30.38,WSW,246,0.0,0.0,84,0.00,,,0.00,meteohub,2013-03-28 12:34:00,
2013-03-28 07:39:00,29.5,24.6,30.38,WSW,246,0.0,0.0,82,0.00,,,0.00,meteohub,2013-03-28 12:39:00,
2013-03-28 07:45:00,30.0,25.0,30.38,WSW,246,0.0,0.0,81,0.00,,,0.00,meteohub,2013-03-28 12:45:00,
2013-03-28 07:50:00,30.6,25.2,30.38,WSW,246,0.0,0.0,80,0.00,,,0.00,meteohub,2013-03-28 12:50:00,
2013-03-28 07:55:00,31.1,24.8,30.38,WNW,292,1.0,3.0,77,0.00,,,0.00,meteohub,2013-03-28 12:55:00,
2013-03-28 08:00:00,31.6,25.0,30.38,WNW,292,1.0,3.0,76,0.00,,,0.00,meteohub,2013-03-28 13:00:00,
2013-03-28 08:06:00,32.0,25.0,30.38,WNW,292,0.0,3.0,75,0.00,,,0.00,meteohub,2013-03-28 13:06:00,
2013-03-28 08:11:00,32.5,25.5,30.38,NW,321,1.0,4.0,75,0.00,,,0.00,meteohub,2013-03-28 13:11:00,
2013-03-28 08:16:00,33.1,25.3,30.38,NW,322,2.0,4.0,73,0.00,,,0.00,meteohub,2013-03-28 13:16:00,
2013-03-28 08:22:00,33.4,25.3,30.38,NW,304,4.0,5.0,72,0.00,,,0.00,meteohub,2013-03-28 13:22:00,
2013-03-28 08:27:00,34.0,25.5,30.38,NW,314,3.0,6.0,71,0.00,,,0.00,meteohub,2013-03-28 13:27:00,
2013-03-28 08:32:00,34.2,25.7,30.38,NNW,336,4.0,6.0,71,0.00,,,0.00,meteohub,2013-03-28 13:32:00,
2013-03-28 08:37:00,34.7,25.9,30.38,NW,317,1.0,6.0,70,0.00,,,0.00,meteohub,2013-03-28 13:37:00,
2013-03-28 08:42:00,35.2,25.7,30.38,NW,325,6.0,6.0,68,0.00,,,0.00,meteohub,2013-03-28 13:42:00,
2013-03-28 08:47:00,35.8,25.9,30.38,NW,326,1.0,7.0,67,0.00,,,0.00,meteohub,2013-03-28 13:47:00,
2013-03-28 08:53:00,36.1,26.2,30.39,WNW,294,5.0,7.0,67,0.00,,,0.00,meteohub,2013-03-28 13:53:00,
2013-03-28 08:58:00,36.5,26.2,30.39,WNW,300,1.0,7.0,66,0.00,,,0.00,meteohub,2013-03-28 13:58:00,
2013-03-28 09:03:00,36.9,26.2,30.39,NNW,336,3.0,7.0,65,0.00,,,0.00,meteohub,2013-03-28 14:03:00,
2013-03-28 09:08:00,37.2,27.0,30.39,NNW,346,0.0,8.0,66,0.00,,,0.00,meteohub,2013-03-28 14:08:00,
2013-03-28 09:13:00,37.8,27.1,30.39,NW,317,1.0,8.0,65,0.00,,,0.00,meteohub,2013-03-28 14:13:00,
2013-03-28 09:18:00,38.7,27.9,30.39,NW,319,2.0,8.0,65,0.00,,,0.00,meteohub,2013-03-28 14:18:00,
2013-03-28 09:24:00,38.8,27.3,30.39,North,355,6.0,6.0,63,0.00,,,0.00,meteohub,2013-03-28 14:24:00,
2013-03-28 09:29:00,38.8,27.0,30.39,NW,323,4.0,5.0,62,0.00,,,0.00,meteohub,2013-03-28 14:29:00,
2013-03-28 09:34:00,39.4,27.5,30.39,NW,319,2.0,7.0,62,0.00,,,0.00,meteohub,2013-03-28 14:34:00,
2013-03-28 09:39:00,39.6,27.7,30.39,NW,313,1.0,8.0,62,0.00,,,0.00,meteohub,2013-03-28 14:39:00,
2013-03-28 09:44:00,39.7,27.3,30.39,North,355,5.0,8.0,61,0.00,,,0.00,meteohub,2013-03-28 14:44:00,
2013-03-28 09:49:00,39.9,27.5,30.39,NNW,339,0.0,6.0,61,0.00,,,0.00,meteohub,2013-03-28 14:49:00,
2013-03-28 09:55:00,40.3,27.9,30.39,NNE,14,4.0,6.0,61,0.00,,,0.00,meteohub,2013-03-28 14:55:00,
2013-03-28 10:00:00,40.3,27.9,30.39,NNW,344,0.0,7.0,61,0.00,,,0.00,meteohub,2013-03-28 15:00:00,
2013-03-28 10:05:00,40.8,28.0,30.39,NW,309,4.0,6.0,60,0.00,,,0.00,meteohub,2013-03-28 15:05:00,
2013-03-28 10:10:00,41.4,28.0,30.39,WNW,301,4.0,8.0,59,0.00,,,0.00,meteohub,2013-03-28 15:10:00,
2013-03-28 10:16:00,41.4,27.7,30.40,NW,312,0.0,8.0,58,0.00,,,0.00,meteohub,2013-03-28 15:16:00,
2013-03-28 10:21:00,41.5,27.9,30.40,NW,304,0.0,8.0,58,0.00,,,0.00,meteohub,2013-03-28 15:21:00,
2013-03-28 10:26:00,42.1,28.4,30.40,NNW,327,3.0,6.0,58,0.00,,,0.00,meteohub,2013-03-28 15:26:00,
2013-03-28 10:32:00,42.6,28.4,30.39,North,10,4.0,6.0,57,0.00,,,0.00,meteohub,2013-03-28 15:32:00,
2013-03-28 10:37:00,42.8,27.7,30.39,NNW,342,4.0,7.0,55,0.00,,,0.00,meteohub,2013-03-28 15:37:00,
2013-03-28 10:42:00,42.6,27.1,30.39,NNW,346,3.0,7.0,54,0.00,,,0.00,meteohub,2013-03-28 15:42:00,
2013-03-28 10:47:00,42.8,27.7,30.40,North,5,4.0,7.0,55,0.00,,,0.00,meteohub,2013-03-28 15:47:00,
2013-03-28 10:52:00,43.2,26.8,30.40,NNE,19,6.0,6.0,52,0.00,,,0.00,meteohub,2013-03-28 15:52:00,
2013-03-28 10:57:00,42.8,25.9,30.39,NNW,328,5.0,7.0,51,0.00,,,0.00,meteohub,2013-03-28 15:57:00,
2013-03-28 11:02:00,43.0,26.6,30.39,WNW,290,4.0,7.0,52,0.00,,,0.00,meteohub,2013-03-28 16:02:00,
2013-03-28 11:07:00,43.5,27.5,30.39,West,263,2.0,7.0,53,0.00,,,0.00,meteohub,2013-03-28 16:07:00,
2013-03-28 11:12:00,44.1,27.1,30.39,WNW,295,0.0,6.0,51,0.00,,,0.00,meteohub,2013-03-28 16:12:00,
2013-03-28 11:17:00,44.2,27.7,30.39,NE,34,5.0,6.0,52,0.00,,,0.00,meteohub,2013-03-28 16:17:00,
2013-03-28 11:23:00,44.4,27.0,30.39,North,9,0.0,7.0,50,0.00,,,0.00,meteohub,2013-03-28 16:23:00,
2013-03-28 11:28:00,45.0,28.4,30.39,ENE,78,1.0,7.0,52,0.00,,,0.00,meteohub,2013-03-28 16:28:00,
2013-03-28 11:33:00,45.1,28.6,30.39,WNW,284,4.0,5.0,52,0.00,,,0.00,meteohub,2013-03-28 16:33:00,
2013-03-28 11:38:00,45.0,28.4,30.39,NW,309,0.0,5.0,52,0.00,,,0.00,meteohub,2013-03-28 16:38:00,
2013-03-28 11:44:00,45.1,28.0,30.39,WSW,254,0.0,5.0,51,0.00,,,0.00,meteohub,2013-03-28 16:44:00,
2013-03-28 11:49:00,45.5,25.9,30.39,NNW,345,6.0,6.0,46,0.00,,,0.00,meteohub,2013-03-28 16:49:00,
2013-03-28 11:54:00,45.1,26.1,30.39,WNW,301,4.0,8.0,47,0.00,,,0.00,meteohub,2013-03-28 16:54:00,
2013-03-28 11:59:00,45.1,25.5,30.38,NW,322,0.0,8.0,46,0.00,,,0.00,meteohub,2013-03-28 16:59:00,
2013-03-28 12:04:00,45.7,26.1,30.38,North,355,0.0,8.0,46,0.00,,,0.00,meteohub,2013-03-28 17:04:00,
2013-03-28 12:09:00,45.7,26.6,30.38,West,280,0.0,8.0,47,0.00,,,0.00,meteohub,2013-03-28 17:09:00,
2013-03-28 12:14:00,45.7,25.5,30.38,West,261,2.0,9.0,45,0.00,,,0.00,meteohub,2013-03-28 17:14:00,
2013-03-28 12:20:00,45.3,25.2,30.38,WNW,298,1.0,9.0,45,0.00,,,0.00,meteohub,2013-03-28 17:20:00,
2013-03-28 12:25:00,46.0,28.9,30.38,East,91,3.0,7.0,51,0.00,,,0.00,meteohub,2013-03-28 17:25:00,
2013-03-28 12:30:00,46.4,29.7,30.38,ENE,63,0.0,7.0,52,0.00,,,0.00,meteohub,2013-03-28 17:30:00,
2013-03-28 12:36:00,46.2,29.1,30.38,SSE,154,1.0,6.0,51,0.00,,,0.00,meteohub,2013-03-28 17:36:00,
2013-03-28 12:42:00,46.4,28.8,30.38,ESE,121,4.0,6.0,50,0.00,,,0.00,meteohub,2013-03-28 17:42:00,
2013-03-28 12:47:00,46.9,28.8,30.38,ENE,71,0.0,6.0,49,0.00,,,0.00,meteohub,2013-03-28 17:47:00,
2013-03-28 12:52:00,46.2,28.6,30.38,ENE,78,0.0,7.0,50,0.00,,,0.00,meteohub,2013-03-28 17:52:00,
2013-03-28 12:58:00,45.7,28.6,30.38,NE,46,0.0,8.0,51,0.00,,,0.00,meteohub,2013-03-28 17:58:00,
2013-03-28 13:03:00,45.9,29.7,30.37,ESE,122,0.0,9.0,53,0.00,,,0.00,meteohub,2013-03-28 18:03:00,
2013-03-28 13:08:00,46.6,29.8,30.37,NNE,22,1.0,9.0,52,0.00,,,0.00,meteohub,2013-03-28 18:08:00,
2013-03-28 13:14:00,46.9,29.8,30.37,NE,42,1.0,9.0,51,0.00,,,0.00,meteohub,2013-03-28 18:14:00,
2013-03-28 13:19:00,47.1,29.5,30.37,SE,129,0.0,6.0,50,0.00,,,0.00,meteohub,2013-03-28 18:19:00,
2013-03-28 13:25:00,47.7,29.5,30.37,SE,126,0.0,6.0,49,0.00,,,0.00,meteohub,2013-03-28 18:25:00,
2013-03-28 13:30:00,47.7,30.0,30.37,SSE,163,5.0,6.0,50,0.00,,,0.00,meteohub,2013-03-28 18:30:00,
2013-03-28 13:35:00,47.7,30.0,30.37,SSW,202,2.0,7.0,50,0.00,,,0.00,meteohub,2013-03-28 18:35:00,
2013-03-28 13:40:00,47.8,29.1,30.36,East,84,2.0,7.0,48,0.00,,,0.00,meteohub,2013-03-28 18:40:00,
2013-03-28 13:45:00,48.4,27.5,30.36,WNW,294,0.0,6.0,44,0.00,,,0.00,meteohub,2013-03-28 18:45:00,
2013-03-28 13:50:00,48.4,27.0,30.36,West,269,0.0,6.0,43,0.00,,,0.00,meteohub,2013-03-28 18:50:00,
2013-03-28 13:56:00,48.7,27.3,30.36,SW,229,4.0,6.0,43,0.00,,,0.00,meteohub,2013-03-28 18:56:00,
2013-03-28 14:02:00,48.4,30.0,30.35,East,86,0.0,7.0,49,0.00,,,0.00,meteohub,2013-03-28 19:02:00,
2013-03-28 14:07:00,48.6,28.2,30.35,NNW,342,2.0,7.0,45,0.00,,,0.00,meteohub,2013-03-28 19:07:00,
2013-03-28 14:12:00,48.7,27.9,30.35,NW,321,5.0,7.0,44,0.00,,,0.00,meteohub,2013-03-28 19:12:00,
2013-03-28 14:17:00,48.6,27.1,30.35,SW,224,5.0,7.0,43,0.00,,,0.00,meteohub,2013-03-28 19:17:00,
2013-03-28 14:22:00,48.6,27.1,30.35,West,280,0.0,7.0,43,0.00,,,0.00,meteohub,2013-03-28 19:22:00,
2013-03-28 14:27:00,49.1,27.5,30.34,NW,320,1.0,7.0,43,0.00,,,0.00,meteohub,2013-03-28 19:27:00,
2013-03-28 14:33:00,49.6,27.5,30.34,WSW,252,0.0,5.0,42,0.00,,,0.00,meteohub,2013-03-28 19:33:00,
2013-03-28 14:38:00,49.6,28.0,30.34,South,169,5.0,5.0,43,0.00,,,0.00,meteohub,2013-03-28 19:38:00,
2013-03-28 14:43:00,49.1,30.7,30.34,ESE,117,6.0,7.0,49,0.00,,,0.00,meteohub,2013-03-28 19:43:00,
2013-03-28 14:49:00,48.6,30.7,30.34,ESE,119,1.0,9.0,50,0.00,,,0.00,meteohub,2013-03-28 19:49:00,
2013-03-28 14:54:00,49.1,31.3,30.33,South,174,3.0,9.0,50,0.00,,,0.00,meteohub,2013-03-28 19:54:00,
2013-03-28 14:59:00,49.3,30.9,30.33,ENE,57,7.0,9.0,49,0.00,,,0.00,meteohub,2013-03-28 19:59:00,
2013-03-28 15:04:00,47.8,30.6,30.33,ENE,69,6.0,8.0,51,0.00,,,0.00,meteohub,2013-03-28 20:04:00,
2013-03-28 15:09:00,47.1,29.8,30.33,ENE,72,2.0,9.0,51,0.00,,,0.00,meteohub,2013-03-28 20:09:00,
2013-03-28 15:15:00,47.1,30.4,30.33,ESE,122,2.0,10.0,52,0.00,,,0.00,meteohub,2013-03-28 20:15:00,
2013-03-28 15:20:00,47.8,30.0,30.33,NE,42,4.0,10.0,50,0.00,,,0.00,meteohub,2013-03-28 20:20:00,
2013-03-28 15:25:00,48.0,30.2,30.33,NE,55,0.0,10.0,50,0.00,,,0.00,meteohub,2013-03-28 20:25:00,
2013-03-28 15:30:00,48.0,29.8,30.32,NW,310,1.0,7.0,49,0.00,,,0.00,meteohub,2013-03-28 20:30:00,
2013-03-28 15:35:00,48.0,29.3,30.32,NE,36,1.0,7.0,48,0.00,,,0.00,meteohub,2013-03-28 20:35:00,
2013-03-28 15:40:00,48.4,29.7,30.32,SE,146,0.0,6.0,48,0.00,,,0.00,meteohub,2013-03-28 20:40:00,
2013-03-28 15:45:00,49.3,29.3,30.32,SW,228,0.0,5.0,46,0.00,,,0.00,meteohub,2013-03-28 20:45:00,
2013-03-28 15:51:00,49.6,30.7,30.32,South,182,5.0,5.0,48,0.00,,,0.00,meteohub,2013-03-28 20:51:00,
2013-03-28 15:56:00,49.5,31.1,30.32,SSE,158,0.0,9.0,49,0.00,,,0.00,meteohub,2013-03-28 20:56:00,
2013-03-28 16:01:00,49.3,29.8,30.32,SSE,164,1.0,9.0,47,0.00,,,0.00,meteohub,2013-03-28 21:01:00,
2013-03-28 16:06:00,49.3,30.4,30.31,SSW,207,5.0,6.0,48,0.00,,,0.00,meteohub,2013-03-28 21:06:00,
2013-03-28 16:11:00,49.5,30.6,30.31,SW,228,0.0,6.0,48,0.00,,,0.00,meteohub,2013-03-28 21:11:00,
2013-03-28 16:16:00,49.8,30.9,30.31,ENE,65,4.0,6.0,48,0.00,,,0.00,meteohub,2013-03-28 21:16:00,
2013-03-28 16:22:00,49.6,30.2,30.31,SE,128,5.0,6.0,47,0.00,,,0.00,meteohub,2013-03-28 21:22:00,
2013-03-28 16:27:00,49.6,30.2,30.31,South,170,0.0,7.0,47,0.00,,,0.00,meteohub,2013-03-28 21:27:00,
2013-03-28 16:32:00,50.2,30.7,30.31,East,91,2.0,7.0,47,0.00,,,0.00,meteohub,2013-03-28 21:32:00,
2013-03-28 16:37:00,49.8,30.9,30.31,South,191,1.0,7.0,48,0.00,,,0.00,meteohub,2013-03-28 21:37:00,
2013-03-28 16:42:00,49.5,30.6,30.31,South,171,1.0,6.0,48,0.00,,,0.00,meteohub,2013-03-28 21:42:00,
2013-03-28 16:47:00,48.7,30.4,30.31,SE,131,4.0,6.0,49,0.00,,,0.00,meteohub,2013-03-28 21:47:00,
2013-03-28 16:52:00,48.4,30.6,30.31,South,169,2.0,7.0,50,0.00,,,0.00,meteohub,2013-03-28 21:52:00,
2013-03-28 16:57:00,48.7,30.9,30.31,SSE,163,3.0,7.0,50,0.00,,,0.00,meteohub,2013-03-28 21:57:00,
2013-03-28 17:03:00,48.6,30.7,30.31,SE,132,0.0,7.0,50,0.00,,,0.00,meteohub,2013-03-28 22:03:00,
2013-03-28 17:08:00,48.9,31.1,30.31,East,92,5.0,5.0,50,0.00,,,0.00,meteohub,2013-03-28 22:08:00,
2013-03-28 17:13:00,48.9,30.6,30.31,ENE,67,5.0,7.0,49,0.00,,,0.00,meteohub,2013-03-28 22:13:00,
2013-03-28 17:19:00,48.7,30.4,30.31,East,88,0.0,7.0,49,0.00,,,0.00,meteohub,2013-03-28 22:19:00,
2013-03-28 17:24:00,48.9,30.6,30.31,NW,312,0.0,7.0,49,0.00,,,0.00,meteohub,2013-03-28 22:24:00,
2013-03-28 17:29:00,49.5,29.5,30.31,South,184,1.0,7.0,46,0.00,,,0.00,meteohub,2013-03-28 22:29:00,
2013-03-28 17:34:00,49.3,28.8,30.31,WSW,244,4.0,6.0,45,0.00,,,0.00,meteohub,2013-03-28 22:34:00,
2013-03-28 17:39:00,49.5,28.9,30.31,SW,222,0.0,6.0,45,0.00,,,0.00,meteohub,2013-03-28 22:39:00,
2013-03-28 17:44:00,49.5,28.4,30.31,NW,307,5.0,6.0,44,0.00,,,0.00,meteohub,2013-03-28 22:44:00,
2013-03-28 17:50:00,49.5,28.4,30.31,WSW,257,0.0,5.0,44,0.00,,,0.00,meteohub,2013-03-28 22:50:00,
2013-03-28 17:55:00,49.3,28.2,30.31,NE,38,0.0,6.0,44,0.00,,,0.00,meteohub,2013-03-28 22:55:00,
2013-03-28 18:00:00,49.1,28.8,30.31,WSW,253,0.0,6.0,45,0.00,,,0.00,meteohub,2013-03-28 23:00:00,
2013-03-28 18:05:00,49.1,28.8,30.31,WSW,242,0.0,5.0,45,0.00,,,0.00,meteohub,2013-03-28 23:05:00,
2013-03-28 18:10:00,48.7,29.5,30.31,WNW,300,0.0,6.0,47,0.00,,,0.00,meteohub,2013-03-28 23:10:00,
2013-03-28 18:15:00,48.9,29.7,30.31,WNW,290,0.0,6.0,47,0.00,,,0.00,meteohub,2013-03-28 23:15:00,
2013-03-28 18:20:00,48.7,28.9,30.31,SW,223,0.0,6.0,46,0.00,,,0.00,meteohub,2013-03-28 23:20:00,
2013-03-28 18:25:00,48.7,28.9,30.31,WNW,299,0.0,5.0,46,0.00,,,0.00,meteohub,2013-03-28 23:25:00,
2013-03-28 18:31:00,48.6,29.3,30.31,SSW,202,1.0,4.0,47,0.00,,,0.00,meteohub,2013-03-28 23:31:00,
2013-03-28 18:36:00,47.8,30.0,30.31,SSE,167,0.0,2.0,50,0.00,,,0.00,meteohub,2013-03-28 23:36:00,
2013-03-28 18:41:00,47.1,30.4,30.31,SE,145,0.0,4.0,52,0.00,,,0.00,meteohub,2013-03-28 23:41:00,
2013-03-28 18:47:00,46.4,30.7,30.31,ESE,107,1.0,4.0,54,0.00,,,0.00,meteohub,2013-03-28 23:47:00,
2013-03-28 18:52:00,45.9,30.6,30.31,SE,146,3.0,6.0,55,0.00,,,0.00,meteohub,2013-03-28 23:52:00,
2013-03-28 18:57:00,45.3,30.9,30.31,SSE,166,1.0,6.0,57,0.00,,,0.00,meteohub,2013-03-28 23:57:00,
2013-03-28 19:02:00,45.1,30.7,30.31,SSE,150,0.0,6.0,57,0.00,,,0.00,meteohub,2013-03-29 00:02:00,
2013-03-28 19:07:00,45.0,31.1,30.31,SE,134,0.0,6.0,58,0.00,,,0.00,meteohub,2013-03-29 00:07:00,
2013-03-28 19:12:00,44.6,30.7,30.31,SE,134,0.0,4.0,58,0.00,,,0.00,meteohub,2013-03-29 00:12:00,
2013-03-28 19:17:00,44.4,30.9,30.31,SE,134,0.0,2.0,59,0.00,,,0.00,meteohub,2013-03-29 00:17:00,
2013-03-28 19:22:00,44.1,30.7,30.31,SE,134,0.0,0.0,59,0.00,,,0.00,meteohub,2013-03-29 00:22:00,
2013-03-28 19:27:00,43.9,30.6,30.31,SE,134,0.0,0.0,59,0.00,,,0.00,meteohub,2013-03-29 00:27:00,
2013-03-28 19:32:00,43.7,30.7,30.31,SE,134,0.0,0.0,60,0.00,,,0.00,meteohub,2013-03-29 00:32:00,
2013-03-28 19:37:00,43.5,30.9,30.32,SE,134,0.0,0.0,61,0.00,,,0.00,meteohub,2013-03-29 00:37:00,
2013-03-28 19:42:00,43.5,30.6,30.32,SE,130,0.0,0.0,60,0.00,,,0.00,meteohub,2013-03-29 00:42:00,
2013-03-28 19:48:00,43.3,30.7,30.32,SE,130,0.0,0.0,61,0.00,,,0.00,meteohub,2013-03-29 00:48:00,
2013-03-28 19:53:00,43.0,30.4,30.32,SE,130,0.0,0.0,61,0.00,,,0.00,meteohub,2013-03-29 00:53:00,
2013-03-28 19:58:00,42.4,30.4,30.32,SE,130,0.0,0.0,62,0.00,,,0.00,meteohub,2013-03-29 00:58:00,
2013-03-28 20:03:00,42.1,30.4,30.32,SE,130,0.0,0.0,63,0.00,,,0.00,meteohub,2013-03-29 01:03:00,
2013-03-28 20:09:00,41.5,30.7,30.32,SE,130,0.0,0.0,65,0.00,,,0.00,meteohub,2013-03-29 01:09:00,
2013-03-28 20:14:00,41.2,30.7,30.32,SE,130,0.0,0.0,66,0.00,,,0.00,meteohub,2013-03-29 01:14:00,
2013-03-28 20:19:00,40.6,30.6,30.32,SE,130,0.0,0.0,67,0.00,,,0.00,meteohub,2013-03-29 01:19:00,
2013-03-28 20:25:00,40.5,30.7,30.32,SE,130,0.0,0.0,68,0.00,,,0.00,meteohub,2013-03-29 01:25:00,
2013-03-28 20:30:00,40.5,30.7,30.32,SE,130,0.0,0.0,68,0.00,,,0.00,meteohub,2013-03-29 01:30:00,
2013-03-28 20:35:00,40.3,30.6,30.32,SE,130,0.0,0.0,68,0.00,,,0.00,meteohub,2013-03-29 01:35:00,
2013-03-28 20:40:00,39.7,30.4,30.32,SE,130,0.0,0.0,69,0.00,,,0.00,meteohub,2013-03-29 01:40:00,
2013-03-28 20:45:00,39.4,30.4,30.32,SE,130,0.0,0.0,70,0.00,,,0.00,meteohub,2013-03-29 01:45:00,
2013-03-28 20:51:00,39.0,30.0,30.32,SE,130,0.0,0.0,70,0.00,,,0.00,meteohub,2013-03-29 01:51:00,
2013-03-28 20:56:00,38.7,30.4,30.32,SE,130,0.0,0.0,72,0.00,,,0.00,meteohub,2013-03-29 01:56:00,
2013-03-28 21:01:00,38.7,30.4,30.32,SE,130,0.0,0.0,72,0.00,,,0.00,meteohub,2013-03-29 02:01:00,
2013-03-28 21:07:00,38.7,31.1,30.32,SE,130,0.0,0.0,74,0.00,,,0.00,meteohub,2013-03-29 02:07:00,
2013-03-28 21:12:00,38.3,30.7,30.32,SE,130,0.0,0.0,74,0.00,,,0.00,meteohub,2013-03-29 02:12:00,
2013-03-28 21:17:00,38.1,30.6,30.33,SE,130,0.0,0.0,74,0.00,,,0.00,meteohub,2013-03-29 02:17:00,
2013-03-28 21:23:00,37.8,30.2,30.33,SE,130,0.0,0.0,74,0.00,,,0.00,meteohub,2013-03-29 02:23:00,
2013-03-28 21:28:00,37.6,30.0,30.33,SE,130,0.0,0.0,74,0.00,,,0.00,meteohub,2013-03-29 02:28:00,
2013-03-28 21:33:00,37.2,30.0,30.33,SE,130,0.0,0.0,75,0.00,,,0.00,meteohub,2013-03-29 02:33:00,
2013-03-28 21:38:00,37.2,30.4,30.33,SE,130,0.0,0.0,76,0.00,,,0.00,meteohub,2013-03-29 02:38:00,
2013-03-28 21:43:00,37.2,30.7,30.33,SE,130,0.0,0.0,77,0.00,,,0.00,meteohub,2013-03-29 02:43:00,
2013-03-28 21:48:00,37.0,30.6,30.33,SE,130,0.0,0.0,77,0.00,,,0.00,meteohub,2013-03-29 02:48:00,
2013-03-28 21:53:00,37.0,30.6,30.33,SE,130,0.0,0.0,77,0.00,,,0.00,meteohub,2013-03-29 02:53:00,
2013-03-28 21:59:00,36.9,30.6,30.33,SE,130,0.0,0.0,78,0.00,,,0.00,meteohub,2013-03-29 02:59:00,
2013-03-28 22:04:00,36.7,30.7,30.33,SE,130,0.0,0.0,79,0.00,,,0.00,meteohub,2013-03-29 03:04:00,
2013-03-28 22:09:00,36.5,30.6,30.33,SE,130,0.0,0.0,79,0.00,,,0.00,meteohub,2013-03-29 03:09:00,
2013-03-28 22:14:00,36.1,30.0,30.33,SE,130,0.0,0.0,78,0.00,,,0.00,meteohub,2013-03-29 03:14:00,
2013-03-28 22:19:00,36.0,30.0,30.32,SE,130,0.0,0.0,79,0.00,,,0.00,meteohub,2013-03-29 03:19:00,
2013-03-28 22:25:00,36.0,29.8,30.32,SE,130,0.0,0.0,78,0.00,,,0.00,meteohub,2013-03-29 03:25:00,
2013-03-28 22:30:00,36.0,30.0,30.32,SE,130,0.0,0.0,79,0.00,,,0.00,meteohub,2013-03-29 03:30:00,
2013-03-28 22:35:00,35.8,29.8,30.33,SE,130,0.0,0.0,79,0.00,,,0.00,meteohub,2013-03-29 03:35:00,
2013-03-28 22:40:00,35.4,29.3,30.32,SE,130,0.0,0.0,78,0.00,,,0.00,meteohub,2013-03-29 03:40:00,
2013-03-28 22:46:00,35.2,29.3,30.32,SE,130,0.0,0.0,79,0.00,,,0.00,meteohub,2013-03-29 03:46:00,
2013-03-28 22:51:00,35.1,29.1,30.32,SE,130,0.0,0.0,79,0.00,,,0.00,meteohub,2013-03-29 03:51:00,
2013-03-28 22:56:00,35.1,29.5,30.32,SE,130,0.0,0.0,80,0.00,,,0.00,meteohub,2013-03-29 03:56:00,
2013-03-28 23:00:00,35.2,29.7,30.32,SE,130,0.0,0.0,80,0.00,,,0.00,meteohub,2013-03-29 04:00:00,
2013-03-28 23:03:00,35.2,29.7,30.32,SE,130,0.0,0.0,80,0.00,,,0.00,meteohub,2013-03-29 04:03:00,
2013-03-28 23:04:00,35.2,29.7,30.32,SE,130,0.0,0.0,80,0.00,,,0.00,meteohub,2013-03-29 04:04:00,
2013-03-28 23:09:00,35.1,29.5,30.32,SE,130,0.0,0.0,80,0.00,,,0.00,meteohub,2013-03-29 04:09:00,
2013-03-28 23:14:00,35.1,29.5,30.32,SE,130,0.0,0.0,80,0.00,,,0.00,meteohub,2013-03-29 04:14:00,
2013-03-28 23:20:00,34.5,28.9,30.32,SE,130,0.0,0.0,80,0.00,,,0.00,meteohub,2013-03-29 04:20:00,
2013-03-28 23:25:00,34.3,29.1,30.32,SE,130,0.0,0.0,81,0.00,,,0.00,meteohub,2013-03-29 04:25:00,
2013-03-28 23:30:00,34.0,28.8,30.32,SE,130,0.0,0.0,81,0.00,,,0.00,meteohub,2013-03-29 04:30:00,
2013-03-28 23:35:00,33.6,28.9,30.32,SE,130,0.0,0.0,83,0.00,,,0.00,meteohub,2013-03-29 04:35:00,
2013-03-28 23:41:00,33.4,28.8,30.32,SE,130,0.0,0.0,83,0.00,,,0.00,meteohub,2013-03-29 04:41:00,
2013-03-28 23:47:00,33.3,28.6,30.32,SE,130,0.0,0.0,83,0.00,,,0.00,meteohub,2013-03-29 04:47:00,
2013-03-28 23:52:00,33.3,28.9,30.32,SE,130,0.0,0.0,84,0.00,,,0.00,meteohub,2013-03-29 04:52:00,
2013-03-28 23:57:00,33.3,28.9,30.32,SE,130,0.0,0.0,84,0.00,,,0.00,meteohub,2013-03-29 04:57:00,